Weather observations for the past three days for
Port Isabel, Port Isabel-Cameron County Airport
Imperial (Metric)
Date Time (cdt) Wind (mph) Vis. (mi.) Weather Sky Cond. Temperature (ºF) Relative Humidity Wind Chill (°F) Heat Index (°F) Pressure Precipitation (in)
Air Dwpt 6 hour altimeter (in) sea level (mb) 1 hr 3 hr 6 hr
Max. Min.
17 09:53 S 10 10.00 Fair CLR 86 77 75% 97 29.98 1015.3
17 08:53 S 8 10.00 Fair CLR 84 77 80% 94 29.99 1015.3
17 06:53 S 5 10.00 Fair CLR 81 78.1 82.9 80.1 91% 89 29.96 1014.4
17 05:53 S 6 10.00 Fair CLR 81 77 88% 88 29.94 1013.7
17 04:53 S 5 10.00 Fair CLR 81 78.1 91% 89 29.93 1013.4
17 03:53 SE 5 10.00 Fair CLR 80.1 77 90% 86 29.93 1013.3
17 02:53 S 5 10.00 Fair CLR 80.1 77 90% 86 29.94 1013.6
17 01:53 S 5 10.00 Fair CLR 81 77 88% 88 29.95 1014.2
17 00:53 S 9 10.00 Fair CLR 82.9 77 87.1 82 82% 92 29.96 1014.5
16 23:53 S 8 10.00 A Few Clouds FEW022 82.9 78.1 85% 93 29.96 1014.4
16 22:53 SE 10 10.00 Fair CLR 82.9 78.1 85% 93 29.95 1014.0
16 21:53 SE 12 10.00 A Few Clouds FEW021 84 77 80% 94 29.95 1014.0
16 20:53 SE 8 10.00 Fair CLR 82.9 77 82% 92 29.93 1013.5
16 19:53 SE 14 10.00 A Few Clouds FEW025 86 77 75% 97 29.92 1012.9
16 18:53 SE 15 10.00 Fair CLR 87.1 77 91.9 87.1 72% 99 29.91 1012.8
16 17:53 SE 16 G 23 10.00 Fair CLR 89.1 75.9 65% 100 29.91 1012.7
16 16:53 SE 17 10.00 Fair CLR 89.1 75.9 65% 100 29.92 1013.1
16 15:53 SE 17 G 26 10.00 Fair CLR 90 78.1 68% 105 29.92 1013.2
16 14:53 SE 17 10.00 Fair CLR 91 78.1 66% 106 29.93 1013.5
16 13:53 E 18 10.00 Fair CLR 91 78.1 66% 106 29.95 1014.1
16 12:53 SE 14 10.00 Mostly Cloudy SCT036 BKN046 91 78.1 91.9 80.1 66% 106 29.96 1014.6
16 11:53 S 12 G 18 10.00 A Few Clouds FEW038 90 75 62% 100 29.97 1014.8
16 10:53 S 10 10.00 A Few Clouds FEW032 88 73.9 63% 97 29.98 1015.0
16 09:53 S 9 10.00 A Few Clouds FEW020 87.1 77 72% 99 29.98 1015.2
16 08:53 S 7 10.00 A Few Clouds FEW022 84.9 79 82% 98 29.99 1015.4
16 07:53 Calm 10.00 Fair CLR 81 78.1 91% 89 29.98 1015.0
16 06:53 S 5 10.00 Fair CLR 80.1 77 82 79 90% 86 29.96 1014.4
16 05:53 S 3 10.00 Fair CLR 80.1 77 90% 86 29.94 1013.9
16 04:53 S 3 10.00 A Few Clouds FEW022 80.1 77 90% 86 29.94 1013.8
16 03:53 S 6 10.00 Fair CLR 79 77 94% 83 29.95 1014.0
16 02:53 S 5 10.00 Fair CLR 80.1 77 90% 86 29.96 1014.3
16 01:53 S 7 10.00 Fair CLR 81 77 88% 88 29.97 1014.7
16 00:53 S 6 10.00 Fair CLR 82 77 86 82 85% 90 29.99 1015.5
15 23:53 SE 9 10.00 A Few Clouds FEW024 82 77 85% 90 29.99 1015.5
15 22:53 SE 10 10.00 Fair CLR 82.9 77 82% 92 29.98 1015.0
15 21:53 SE 12 10.00 Partly Cloudy SCT019 82.9 77 82% 92 29.96 1014.5
15 20:53 SE 12 10.00 Fair CLR 82.9 77 82% 92 29.96 1014.4
15 19:53 SE 10 10.00 Fair CLR 84 75 74% 92 29.96 1014.5
15 18:53 SE 14 10.00 Fair CLR 86 75 91 86 70% 95 29.95 1014.1
15 17:53 SE 16 10.00 Fair CLR 87.1 73.9 65% 95 29.96 1014.3
15 16:53 SE 14 G 22 10.00 Fair CLR 89.1 73.9 61% 98 29.97 1014.9
15 15:53 SE 14 10.00 Fair CLR 90 75 62% 100 30 1015.7
15 14:53 SE 14 G 23 10.00 Fair CLR 90 75 62% 100 30.02 1016.4
15 13:53 SE 12 10.00 Fair CLR 89.1 75 63% 99 30.04 1017.1
15 12:53 SE 10 10.00 A Few Clouds FEW036 89.1 75.9 90 78.1 65% 100 30.05 1017.5
15 11:53 S 10 10.00 Fair CLR 88 75 66% 98 30.06 1017.7
15 10:53 SE 9 10.00 A Few Clouds FEW027 87.1 75 67% 97 30.07 1018.1
15 09:53 S 8 10.00 Fair CLR 84.9 77 77% 95 30.08 1018.4
15 08:53 S 10 10.00 Fair CLR 82.9 77 82% 92 30.07 1018.3
15 07:53 S 6 10.00 Fair CLR 81 78.1 91% 89 30.06 1017.7
15 06:53 SE 7 10.00 Fair CLR 78.1 75.9 80.1 78.1 93% 81 30.04 1017.2
15 05:53 S 3 10.00 Fair CLR 78.1 75.9 93% 81 30.04 1017.0
15 04:53 S 6 10.00 Fair CLR 79 77 94% 83 30.03 1016.7
15 03:53 S 6 10.00 A Few Clouds FEW020 79 77 94% 83 30.03 1016.8
15 02:53 S 7 10.00 A Few Clouds FEW023 80.1 77 90% 86 30.04 1017.0
15 01:53 S 6 10.00 Fair CLR 80.1 77 90% 86 30.05 1017.5
15 00:53 S 6 10.00 Fair CLR 80.1 77 84.9 80.1 90% 86 30.06 1017.9
14 23:53 S 7 10.00 Fair CLR 81 77 88% 88 30.07 1018.2
14 22:53 S 7 10.00 Fair CLR 82 77 85% 90 30.06 1018.0
14 21:53 SE 8 10.00 Fair CLR 82 77 85% 90 30.06 1017.8
14 20:53 SE 9 10.00 Fair CLR 82.9 77 82% 92 30.06 1017.7
14 19:53 SE 15 10.00 A Few Clouds FEW023 84.9 75.9 75% 94 30.06 1018.0
14 18:53 SE 10 10.00 Fair CLR 84.9 75.9 91.9 84.9 75% 94 30.06 1018.0
14 17:53 SE 12 10.00 Fair CLR 86 77 75% 97 30.06 1017.9
14 16:53 SE 12 10.00 Fair CLR 87.1 78.1 75% 100 30.08 1018.4
14 15:53 SE 14 10.00 Fair CLR 87.1 75.9 70% 98 30.08 1018.6
14 14:53 SE 17 10.00 A Few Clouds FEW028 91 78.1 66% 106 30.09 1019.0
14 13:53 E 17 G 23 10.00 Fair CLR 88 79 75% 103 30.11 1019.5
14 12:53 E 15 10.00 Mostly Cloudy FEW027 SCT036 BKN043 89.1 79 90 80.1 72% 105 30.12 1019.8
14 11:53 E 12 10.00 Mostly Cloudy SCT025 BKN032 BKN040 87.1 78.1 75% 100 30.12 1019.9
14 10:53 SE 8 10.00 Mostly Cloudy SCT024 BKN031 BKN042 88 78.1 73% 102 30.12 1019.7
Date Time (cdt) Wind (mph) Vis. (mi.) Weather Sky Cond. Air Dwpt Max. Min. Relative Humidity Wind Chill (°F) Heat Index (°F) altimeter (in) sea level (mb) 1 hr 3 hr 6 hr
6 hour
Temperature (ºF) Pressure Precipitation (in)